Location: Góry Miechowskie
(50.3599°N, 20.1803°E)
Time: 10:21:03
(UTC+00:00)

Cosmos 2227 Rocket - Visible Passes

Search period start: 08 September 2024 00:00
Search period end: 18 September 2024 00:00
Orbit: 839 x 843 km, 71.0° (Epoch: 07 September)

Date Brightness Start Highest point End Pass type
(mag) Time Alt. Az. Time Alt. Az. Time Alt. Az.
11 Sep 5.3 03:21:34 10° ESE 03:23:51 13° E 03:26:09 10° ENE visible
12 Sep 5.3 03:06:45 10° ESE 03:08:42 12° E 03:10:40 10° ENE visible
13 Sep 5.3 02:52:01 10° ESE 02:53:33 11° E 02:55:06 10° ENE visible
14 Sep 5.4 02:37:28 10° ESE 02:38:25 10° E 02:39:20 10° E visible
17 Sep 3.0 03:30:15 10° S 03:35:42 54° ESE 03:41:12 10° NE visible
